Location: Montbazon
(47.2835°N, 0.6999°E)
Time: 16:19:41
(UTC+00:00)

Cosmos 2278 Rocket - Pass Details

Date: 08 November 2025
Orbit: 841 x 843 km, 71.0° (Epoch: 09 December)

Event Time Altitude Azimuth Distance (km) Brightness Sun altitude
Exits shadow 03:29:47 17° 7° (N) 2,019 4.3 -34.2°
Maximum altitude 03:32:33 24° 45° (NE) 1,688 4.2 -33.8°
Drops below altitude 10° 03:37:03 10° 99° (E) 2,460 5.4 -33.0°
Sets 03:39:59 0° 113° (ESE) 3,392 6.1 -32.5°
